#Datum;Uhrzeit;WR;Pac;DaySum;Status;WR;Pac;DaySum;Status;Pdc1;Udc;Temp;WR;Pac;DaySum;Status;Pdc1;Udc;Temp;WR;Pac;DaySum;Status;Pdc1;Udc;Temp;WR;Pac;DaySum;Status;Pdc1;Pdc2;Udc1;Udc2;Temp;WR;Pac;DaySum;Status;Pdc1;Pdc2;Udc1;Udc2;Temp;WR;Pac;DaySum;Status;Pdc1;Udc;Temp;WR;Pac;DaySum;Status;Pdc1;Udc;Temp;WR;Pac;DaySum;Status;Pdc1;Udc;Temp
04.11.20;23:55:00;1;285;11588;0;2;0;3642;0;0;0;0;3;0;2261;0;0;0;0;4;0;3147;0;0;0;0;5;0;0;0;0;0;0;0;0;6;0;5873;0;0;0;0;0;0;7;0;4052;0;0;0;0;8;0;1833;0;0;0;0;9;0;2152;0;0;0;0
04.11.20;23:50:00;1;322;11564;0;2;0;3642;0;0;0;0;3;0;2261;0;0;0;0;4;0;3147;0;0;0;0;5;0;0;0;0;0;0;0;0;6;0;5873;0;0;0;0;0;0;7;0;4052;0;0;0;0;8;0;1833;0;0;0;0;9;0;2152;0;0;0;0
04.11.20;23:45:00;1;239;11538;0;2;0;3642;0;0;0;0;3;0;2261;0;0;0;0;4;0;3147;0;0;0;0;5;0;0;0;0;0;0;0;0;6;0;5873;0;0;0;0;0;0;7;0;4052;0;0;0;0;8;0;1833;0;0;0;0;9;0;2152;0;0;0;0
04.11.20;23:40:00;1;223;11517;0;2;0;3642;0;0;0;0;3;0;2261;0;0;0;0;4;0;3147;0;0;0;0;5;0;0;0;0;0;0;0;0;6;0;5873;0;0;0;0;0;0;7;0;4052;0;0;0;0;8;0;1833;0;0;0;0;9;0;2152;0;0;0;0
04.11.20;23:35:00;1;264;11498;0;2;0;3642;0;0;0;0;3;0;2261;0;0;0;0;4;0;3147;0;0;0;0;5;0;0;0;0;0;0;0;0;6;0;5873;0;0;0;0;0;0;7;0;4052;0;0;0;0;8;0;1833;0;0;0;0;9;0;2152;0;0;0;0
04.11.20;23:30:00;1;265;11476;0;2;0;3642;0;0;0;0;3;0;2261;0;0;0;0;4;0;3147;0;0;0;0;5;0;0;0;0;0;0;0;0;6;0;5873;0;0;0;0;0;0;7;0;4052;0;0;0;0;8;0;1833;0;0;0;0;9;0;2152;0;0;0;0
04.11.20;23:25:00;1;310;11454;0;2;0;3642;0;0;0;0;3;0;2261;0;0;0;0;4;0;3147;0;0;0;0;5;0;0;0;0;0;0;0;0;6;0;5873;0;0;0;0;0;0;7;0;4052;0;0;0;0;8;0;1833;0;0;0;0;9;0;2152;0;0;0;0
04.11.20;23:20:00;1;347;11428;0;2;0;3642;0;0;0;0;3;0;2261;0;0;0;0;4;0;3147;0;0;0;0;5;0;0;0;0;0;0;0;0;6;0;5873;0;0;0;0;0;0;7;0;4052;0;0;0;0;8;0;1833;0;0;0;0;9;0;2152;0;0;0;0
04.11.20;23:15:00;1;262;11400;0;2;0;3642;0;0;0;0;3;0;2261;0;0;0;0;4;0;3147;0;0;0;0;5;0;0;0;0;0;0;0;0;6;0;5873;0;0;0;0;0;0;7;0;4052;0;0;0;0;8;0;1833;0;0;0;0;9;0;2152;0;0;0;0
04.11.20;23:10:00;1;237;11378;0;2;0;3642;0;0;0;0;3;0;2261;0;0;0;0;4;0;3147;0;0;0;0;5;0;0;0;0;0;0;0;0;6;0;5873;0;0;0;0;0;0;7;0;4052;0;0;0;0;8;0;1833;0;0;0;0;9;0;2152;0;0;0;0
04.11.20;23:05:00;1;306;11358;0;2;0;3642;0;0;0;0;3;0;2261;0;0;0;0;4;0;3147;0;0;0;0;5;0;0;0;0;0;0;0;0;6;0;5873;0;0;0;0;0;0;7;0;4052;0;0;0;0;8;0;1833;0;0;0;0;9;0;2152;0;0;0;0
04.11.20;23:00:00;1;341;11333;0;2;0;3642;0;0;0;0;3;0;2261;0;0;0;0;4;0;3147;0;0;0;0;5;0;0;0;0;0;0;0;0;6;0;5873;0;0;0;0;0;0;7;0;4052;0;0;0;0;8;0;1833;0;0;0;0;9;0;2152;0;0;0;0
04.11.20;22:55:00;1;328;11305;0;2;0;3642;0;0;0;0;3;0;2261;0;0;0;0;4;0;3147;0;0;0;0;5;0;0;0;0;0;0;0;0;6;0;5873;2;0;0;0;0;0;7;0;4052;0;0;0;0;8;0;1833;0;0;0;0;9;0;2152;0;0;0;0
04.11.20;22:50:00;1;334;11277;0;2;0;3642;0;0;0;0;3;0;2261;0;0;0;0;4;0;3147;0;0;0;0;5;0;0;0;0;0;0;0;0;6;0;5873;2;0;0;0;0;0;7;0;4052;0;0;0;0;8;0;1833;0;0;0;0;9;0;2152;0;0;0;0
04.11.20;22:45:00;1;338;11249;0;2;0;3642;0;0;0;0;3;0;2261;0;0;0;0;4;0;3147;0;0;0;0;5;0;0;0;0;0;0;0;0;6;0;5873;2;0;0;0;0;0;7;0;4052;0;0;0;0;8;0;1833;0;0;0;0;9;0;2152;0;0;0;0
04.11.20;22:40:00;1;332;11221;0;2;0;3642;0;0;0;0;3;0;2261;0;0;0;0;4;0;3147;0;0;0;0;5;0;0;0;0;0;0;0;0;6;0;5873;2;0;0;0;0;0;7;0;4052;0;0;0;0;8;0;1833;0;0;0;0;9;0;2152;0;0;0;0
04.11.20;22:35:00;1;455;11194;0;2;0;3642;0;0;0;0;3;0;2261;0;0;0;0;4;0;3147;0;0;0;0;5;0;0;0;0;0;0;0;0;6;0;5873;2;0;0;0;0;0;7;0;4052;0;0;0;0;8;0;1833;0;0;0;0;9;0;2152;0;0;0;0
04.11.20;22:30:00;1;504;11157;0;2;0;3642;0;0;0;0;3;0;2261;0;0;0;0;4;0;3147;0;0;0;0;5;0;0;0;0;0;0;0;0;6;0;5873;2;0;0;0;0;0;7;0;4052;0;0;0;0;8;0;1833;0;0;0;0;9;0;2152;0;0;0;0
04.11.20;22:25:00;1;541;11114;0;2;0;3642;0;0;0;0;3;0;2261;0;0;0;0;4;0;3147;0;0;0;0;5;0;0;0;0;0;0;0;0;6;0;5873;2;0;0;0;0;0;7;0;4052;0;0;0;0;8;0;1833;0;0;0;0;9;0;2152;0;0;0;0
04.11.20;22:20:00;1;501;11069;0;2;0;3642;0;0;0;0;3;0;2261;0;0;0;0;4;0;3147;0;0;0;0;5;0;0;0;0;0;0;0;0;6;0;5873;2;0;0;0;0;0;7;0;4052;0;0;0;0;8;0;1833;0;0;0;0;9;0;2152;0;0;0;0
04.11.20;22:15:00;1;456;11028;0;2;0;3642;0;0;0;0;3;0;2261;0;0;0;0;4;0;3147;0;0;0;0;5;0;0;0;0;0;0;0;0;6;0;5873;2;0;0;0;0;0;7;0;4052;0;0;0;0;8;0;1833;0;0;0;0;9;0;2152;0;0;0;0
04.11.20;22:10:00;1;496;10990;0;2;0;3642;0;0;0;0;3;0;2261;0;0;0;0;4;0;3147;0;0;0;0;5;0;0;0;0;0;0;0;0;6;0;5873;2;0;0;0;0;0;7;0;4052;0;0;0;0;8;0;1833;0;0;0;0;9;0;2152;0;0;0;0
04.11.20;22:05:00;1;509;10949;0;2;0;3642;0;0;0;0;3;0;2261;0;0;0;0;4;0;3147;0;0;0;0;5;0;0;0;0;0;0;0;0;6;0;5873;2;0;0;0;0;0;7;0;4052;0;0;0;0;8;0;1833;0;0;0;0;9;0;2152;0;0;0;0
04.11.20;22:00:00;1;505;10907;0;2;0;3642;0;0;0;0;3;0;2261;0;0;0;0;4;0;3147;0;0;0;0;5;0;0;0;0;0;0;0;0;6;0;5873;2;0;0;0;0;0;7;0;4052;0;0;0;0;8;0;1833;0;0;0;0;9;0;2152;0;0;0;0
04.11.20;21:55:00;1;517;10865;0;2;0;3642;0;0;0;0;3;0;2261;0;0;0;0;4;0;3147;0;0;0;0;5;0;0;0;0;0;0;0;0;6;0;5873;2;0;0;0;0;0;7;0;4052;0;0;0;0;8;0;1833;0;0;0;0;9;0;2152;0;0;0;0
04.11.20;21:50:00;1;496;10821;0;2;0;3642;0;0;0;0;3;0;2261;0;0;0;0;4;0;3147;0;0;0;0;5;0;0;0;0;0;0;0;0;6;0;5873;2;0;0;0;0;0;7;0;4052;0;0;0;0;8;0;1833;0;0;0;0;9;0;2152;0;0;0;0
04.11.20;21:45:00;1;481;10780;0;2;0;3642;0;0;0;0;3;0;2261;0;0;0;0;4;0;3147;0;0;0;0;5;0;0;0;0;0;0;0;0;6;0;5873;2;0;0;0;0;0;7;0;4052;0;0;0;0;8;0;1833;0;0;0;0;9;0;2152;0;0;0;0
04.11.20;21:40:00;1;537;10741;0;2;0;3642;0;0;0;0;3;0;2261;0;0;0;0;4;0;3147;0;0;0;0;5;0;0;0;0;0;0;0;0;6;0;5873;2;0;0;0;0;0;7;0;4052;0;0;0;0;8;0;1833;0;0;0;0;9;0;2152;0;0;0;0
04.11.20;21:35:00;1;530;10699;0;2;0;3642;0;0;0;0;3;0;2261;0;0;0;0;4;0;3147;0;0;0;0;5;0;0;0;0;0;0;0;0;6;0;5873;2;0;0;0;0;0;7;0;4052;0;0;0;0;8;0;1833;0;0;0;0;9;0;2152;0;0;0;0
04.11.20;21:30:00;1;527;10655;0;2;0;3642;0;0;0;0;3;0;2261;0;0;0;0;4;0;3147;0;0;0;0;5;0;0;0;0;0;0;0;0;6;0;5873;2;0;0;0;0;0;7;0;4052;0;0;0;0;8;0;1833;0;0;0;0;9;0;2152;0;0;0;0
04.11.20;21:25:00;1;468;10611;0;2;0;3642;0;0;0;0;3;0;2261;0;0;0;0;4;0;3147;0;0;0;0;5;0;0;0;0;0;0;0;0;6;0;5873;2;0;0;0;0;0;7;0;4052;0;0;0;0;8;0;1833;0;0;0;0;9;0;2152;0;0;0;0
04.11.20;21:20:00;1;477;10570;0;2;0;3642;0;0;0;0;3;0;2261;0;0;0;0;4;0;3147;0;0;0;0;5;0;0;0;0;0;0;0;0;6;0;5873;2;0;0;0;0;0;7;0;4052;0;0;0;0;8;0;1833;0;0;0;0;9;0;2152;0;0;0;0
04.11.20;21:15:00;1;417;10530;0;2;0;3642;0;0;0;0;3;0;2261;0;0;0;0;4;0;3147;0;0;0;0;5;0;0;0;0;0;0;0;0;6;0;5873;2;0;0;0;0;0;7;0;4052;0;0;0;0;8;0;1833;0;0;0;0;9;0;2152;0;0;0;0
04.11.20;21:10:00;1;409;10495;0;2;0;3642;0;0;0;0;3;0;2261;0;0;0;0;4;0;3147;0;0;0;0;5;0;0;0;0;0;0;0;0;6;0;5873;2;0;0;0;0;0;7;0;4052;0;0;0;0;8;0;1833;0;0;0;0;9;0;2152;0;0;0;0
04.11.20;21:05:00;1;415;10460;0;2;0;3642;0;0;0;0;3;0;2261;0;0;0;0;4;0;3147;0;0;0;0;5;0;0;0;0;0;0;0;0;6;0;5873;2;0;0;0;0;0;7;0;4052;0;0;0;0;8;0;1833;0;0;0;0;9;0;2152;0;0;0;0
04.11.20;21:00:00;1;419;10426;0;2;0;3642;0;0;0;0;3;0;2261;0;0;0;0;4;0;3147;0;0;0;0;5;0;0;0;0;0;0;0;0;6;0;5873;2;0;0;0;0;0;7;0;4052;0;0;0;0;8;0;1833;0;0;0;0;9;0;2152;0;0;0;0
04.11.20;20:55:00;1;500;10390;0;2;0;3642;0;0;0;0;3;0;2261;0;0;0;0;4;0;3147;0;0;0;0;5;0;0;0;0;0;0;0;0;6;0;5873;2;0;0;0;0;0;7;0;4052;0;0;0;0;8;0;1833;0;0;0;0;9;0;2152;0;0;0;0
04.11.20;20:50:00;1;420;10348;0;2;0;3642;0;0;0;0;3;0;2261;0;0;0;0;4;0;3147;0;0;0;0;5;0;0;0;0;0;0;0;0;6;0;5873;2;0;0;0;0;0;7;0;4052;0;0;0;0;8;0;1833;0;0;0;0;9;0;2152;0;0;0;0
04.11.20;20:45:00;1;450;10313;0;2;0;3642;0;0;0;0;3;0;2261;0;0;0;0;4;0;3147;0;0;0;0;5;0;0;0;0;0;0;0;0;6;0;5873;2;0;0;0;0;0;7;0;4052;0;0;0;0;8;0;1833;0;0;0;0;9;0;2152;0;0;0;0
04.11.20;20:40:00;1;447;10275;0;2;0;3642;0;0;0;0;3;0;2261;0;0;0;0;4;0;3147;0;0;0;0;5;0;0;0;0;0;0;0;0;6;0;5873;2;0;0;0;0;0;7;0;4052;0;0;0;0;8;0;1833;0;0;0;0;9;0;2152;0;0;0;0
04.11.20;20:35:00;1;494;10238;0;2;0;3642;0;0;0;0;3;0;2261;0;0;0;0;4;0;3147;0;0;0;0;5;0;0;0;0;0;0;0;0;6;0;5873;2;0;0;0;0;0;7;0;4052;0;0;0;0;8;0;1833;0;0;0;0;9;0;2152;0;0;0;0
04.11.20;20:30:00;1;631;10197;0;2;0;3642;0;0;0;0;3;0;2261;0;0;0;0;4;0;3147;0;0;0;0;5;0;0;0;0;0;0;0;0;6;0;5873;2;0;0;0;0;0;7;0;4052;0;0;0;0;8;0;1833;0;0;0;0;9;0;2152;0;0;0;0
04.11.20;20:25:00;1;442;10150;0;2;0;3642;0;0;0;0;3;0;2261;0;0;0;0;4;0;3147;0;0;0;0;5;0;0;0;0;0;0;0;0;6;0;5873;2;0;0;0;0;0;7;0;4052;0;0;0;0;8;0;1833;0;0;0;0;9;0;2152;0;0;0;0
04.11.20;20:20:00;1;504;10113;0;2;0;3642;0;0;0;0;3;0;2261;0;0;0;0;4;0;3147;0;0;0;0;5;0;0;0;0;0;0;0;0;6;0;5873;2;0;0;0;0;0;7;0;4052;0;0;0;0;8;0;1833;0;0;0;0;9;0;2152;0;0;0;0
04.11.20;20:15:00;1;471;10073;0;2;0;3642;0;0;0;0;3;0;2261;0;0;0;0;4;0;3147;0;0;0;0;5;0;0;0;0;0;0;0;0;6;0;5873;2;0;0;0;0;0;7;0;4052;0;0;0;0;8;0;1833;0;0;0;0;9;0;2152;0;0;0;0
04.11.20;20:10:00;1;518;10034;0;2;0;3642;0;0;0;0;3;0;2261;0;0;0;0;4;0;3147;0;0;0;0;5;0;0;0;0;0;0;0;0;6;0;5873;2;0;0;0;0;0;7;0;4052;0;0;0;0;8;0;1833;0;0;0;0;9;0;2152;0;0;0;0
04.11.20;20:05:00;1;353;9990;0;2;0;3642;0;0;0;0;3;0;2261;0;0;0;0;4;0;3147;0;0;0;0;5;0;0;0;0;0;0;0;0;6;0;5873;2;0;0;0;0;0;7;0;4052;0;0;0;0;8;0;1833;0;0;0;0;9;0;2152;0;0;0;0
04.11.20;20:00:00;1;323;9957;0;2;0;3642;0;0;0;0;3;0;2261;0;0;0;0;4;0;3147;0;0;0;0;5;0;0;0;0;0;0;0;0;6;0;5873;2;0;0;0;0;0;7;0;4052;0;0;0;0;8;0;1833;0;0;0;0;9;0;2152;0;0;0;0
04.11.20;19:55:00;1;313;9930;0;2;0;3642;0;0;0;0;3;0;2261;0;0;0;0;4;0;3147;0;0;0;0;5;0;0;0;0;0;0;0;0;6;0;5873;2;0;0;0;0;0;7;0;4052;0;0;0;0;8;0;1833;0;0;0;0;9;0;2152;0;0;0;0
04.11.20;19:50:00;1;353;9904;0;2;0;3642;0;0;0;0;3;0;2261;0;0;0;0;4;0;3147;0;0;0;0;5;0;0;0;0;0;0;0;0;6;0;5873;2;0;0;0;0;0;7;0;4052;0;0;0;0;8;0;1833;0;0;0;0;9;0;2152;0;0;0;0
04.11.20;19:45:00;1;570;9874;0;2;0;3642;0;0;0;0;3;0;2261;0;0;0;0;4;0;3147;0;0;0;0;5;0;0;0;0;0;0;0;0;6;0;5873;2;0;0;0;0;0;7;0;4052;0;0;0;0;8;0;1833;0;0;0;0;9;0;2152;0;0;0;0
04.11.20;19:40:00;1;717;9827;0;2;0;3642;0;0;0;0;3;0;2261;0;0;0;0;4;0;3147;0;0;0;0;5;0;0;0;0;0;0;0;0;6;0;5873;2;0;0;0;0;0;7;0;4052;0;0;0;0;8;0;1833;0;0;0;0;9;0;2152;0;0;0;0
04.11.20;19:35:00;1;843;9766;0;2;0;3642;0;0;0;0;3;0;2261;0;0;0;0;4;0;3147;0;0;0;0;5;0;0;0;0;0;0;0;0;6;0;5873;2;0;0;0;0;0;7;0;4052;0;0;0;0;8;0;1833;0;0;0;0;9;0;2152;0;0;0;0
04.11.20;19:30:00;1;642;9708;0;2;0;3642;0;0;0;0;3;0;2261;0;0;0;0;4;0;3147;0;0;0;0;5;0;0;0;0;0;0;0;0;6;0;5873;2;0;0;0;0;0;7;0;4052;0;0;0;0;8;0;1833;0;0;0;0;9;0;2152;0;0;0;0
04.11.20;19:25:00;1;627;9655;0;2;0;3642;0;0;0;0;3;0;2261;0;0;0;0;4;0;3147;0;0;0;0;5;0;0;0;0;0;0;0;0;6;0;5873;2;0;0;0;0;0;7;0;4052;0;0;0;0;8;0;1833;0;0;0;0;9;0;2152;0;0;0;0
04.11.20;19:20:00;1;707;9603;0;2;0;3642;0;0;0;0;3;0;2261;0;0;0;0;4;0;3147;0;0;0;0;5;0;0;0;0;0;0;0;0;6;0;5873;2;0;0;0;0;0;7;0;4052;0;0;0;0;8;0;1833;0;0;0;0;9;0;2152;0;0;0;0
04.11.20;19:15:00;1;682;9544;0;2;0;3642;0;0;0;0;3;0;2261;0;0;0;0;4;0;3147;0;0;0;0;5;0;0;0;0;0;0;0;0;6;0;5873;2;0;0;0;0;0;7;0;4052;0;0;0;0;8;0;1833;0;0;0;0;9;0;2152;0;0;0;0
04.11.20;19:10:00;1;694;9487;0;2;0;3642;0;0;0;0;3;0;2261;0;0;0;0;4;0;3147;0;0;0;0;5;0;0;0;0;0;0;0;0;6;0;5873;2;0;0;0;0;0;7;0;4052;0;0;0;0;8;0;1833;0;0;0;0;9;0;2152;0;0;0;0
04.11.20;19:05:00;1;668;9430;0;2;0;3642;0;0;0;0;3;0;2261;0;0;0;0;4;0;3147;0;0;0;0;5;0;0;0;0;0;0;0;0;6;0;5873;2;0;0;0;0;0;7;0;4052;0;0;0;0;8;0;1833;0;0;0;0;9;0;2152;0;0;0;0
04.11.20;19:00:00;1;732;9376;0;2;0;3642;0;0;0;0;3;0;2261;0;0;0;0;4;0;3147;0;0;0;0;5;0;0;0;0;0;0;0;0;6;0;5873;2;0;0;0;0;0;7;0;4052;0;0;0;0;8;0;1833;0;0;0;0;9;0;2152;0;0;0;0
04.11.20;18:55:00;1;738;9315;0;2;0;3642;0;0;0;0;3;0;2261;0;0;0;0;4;0;3147;0;0;0;0;5;0;0;0;0;0;0;0;0;6;0;5873;2;0;0;0;0;0;7;0;4052;0;0;0;0;8;0;1833;0;0;0;0;9;0;2152;0;0;0;0
04.11.20;18:50:00;1;676;9253;0;2;0;3642;0;0;0;0;3;0;2261;0;0;0;0;4;0;3147;0;0;0;0;5;0;0;0;0;0;0;0;0;6;0;5873;2;0;0;0;0;0;7;0;4052;0;0;0;0;8;0;1833;0;0;0;0;9;0;2152;0;0;0;0
04.11.20;18:45:00;1;694;9197;0;2;0;3642;0;0;0;0;3;0;2261;0;0;0;0;4;0;3147;0;0;0;0;5;0;0;0;0;0;0;0;0;6;0;5873;2;0;0;0;0;0;7;0;4052;0;0;0;0;8;0;1833;0;0;0;0;9;0;2152;0;0;0;0
04.11.20;18:40:00;1;673;9139;0;2;0;3642;0;0;0;0;3;0;2261;0;0;0;0;4;0;3147;0;0;0;0;5;0;0;0;0;0;0;0;0;6;0;5873;2;0;0;0;0;0;7;0;4052;0;0;0;0;8;0;1833;0;0;0;0;9;0;2152;0;0;0;0
04.11.20;18:35:00;1;661;9083;0;2;0;3642;0;0;0;0;3;0;2261;0;0;0;0;4;0;3147;0;0;0;0;5;0;0;0;0;0;0;0;0;6;0;5873;2;0;0;0;0;0;7;0;4052;0;0;0;0;8;0;1833;0;0;0;0;9;0;2152;0;0;0;0
04.11.20;18:30:00;1;645;9028;0;2;0;3642;0;0;0;0;3;0;2261;0;0;0;0;4;0;3147;0;0;0;0;5;0;0;0;0;0;0;0;0;6;0;5873;2;0;0;0;0;0;7;0;4052;0;0;0;0;8;0;1833;0;0;0;0;9;0;2152;0;0;0;0
04.11.20;18:25:00;1;679;8973;0;2;0;3642;0;0;0;0;3;0;2261;0;0;0;0;4;0;3147;0;0;0;0;5;0;0;0;0;0;0;0;0;6;0;5873;2;0;0;0;0;0;7;0;4052;0;0;0;0;8;0;1833;0;0;0;0;9;0;2152;0;0;0;0
04.11.20;18:20:00;1;669;8916;0;2;0;3642;0;0;0;0;3;0;2261;0;0;0;0;4;0;3147;0;0;0;0;5;0;0;0;0;0;0;0;0;6;0;5873;2;0;0;0;0;0;7;0;4052;0;0;0;0;8;0;1833;0;0;0;0;9;0;2152;0;0;0;0
04.11.20;18:15:00;1;1581;8861;0;2;0;3642;0;0;0;0;3;0;2261;0;0;0;0;4;0;3147;0;0;0;0;5;0;0;0;0;0;0;0;0;6;0;5873;2;0;0;0;0;0;7;0;4052;0;0;0;0;8;0;1833;0;0;0;0;9;0;2152;0;0;0;0
04.11.20;18:10:00;1;2166;8706;0;2;0;3642;0;0;0;0;3;0;2261;0;0;0;0;4;0;3147;0;0;0;0;5;0;0;0;0;0;0;0;0;6;0;5873;2;0;0;0;0;0;7;0;4052;0;0;0;0;8;0;1833;0;0;0;0;9;0;2152;0;0;0;0
04.11.20;18:05:00;1;1544;8561;0;2;0;3642;0;0;0;0;3;0;2261;0;0;0;0;4;0;3147;0;0;0;0;5;0;0;0;0;0;0;0;0;6;0;5873;2;0;0;0;0;0;7;0;4052;0;0;0;0;8;0;1833;0;0;0;0;9;0;2152;0;0;0;0
04.11.20;18:00:00;1;2140;8444;0;2;0;3642;0;0;0;0;3;0;2261;0;0;0;0;4;0;3147;0;0;0;0;5;0;0;0;0;0;0;0;0;6;0;5873;2;0;0;0;0;0;7;0;4052;0;0;0;0;8;0;1833;0;0;0;0;9;0;2152;0;0;0;0
04.11.20;17:55:00;1;1668;8309;0;2;0;3642;0;0;0;0;3;0;2261;0;0;0;0;4;0;3147;0;0;0;0;5;0;0;0;0;0;0;0;0;6;0;5873;2;0;0;0;0;0;7;0;4052;0;0;0;0;8;0;1833;0;0;0;0;9;0;2152;0;0;0;0
04.11.20;17:50:00;1;1849;8180;0;2;0;3642;0;0;0;0;3;0;2261;0;0;0;0;4;0;3147;0;0;0;0;5;0;0;0;0;0;0;0;0;6;0;5873;2;0;0;0;0;0;7;0;4052;0;0;0;0;8;0;1833;0;0;0;0;9;0;2152;0;0;0;0
04.11.20;17:45:00;1;4052;7944;0;2;0;3642;0;0;0;0;3;0;2261;0;0;0;0;4;0;3147;0;0;0;0;5;0;0;0;0;0;0;0;0;6;0;5873;2;0;0;0;0;0;7;0;4052;0;0;0;0;8;0;1833;0;0;0;0;9;0;2152;0;0;0;0
04.11.20;17:40:00;1;686;7620;0;2;0;3642;0;0;0;0;3;0;2261;0;0;0;0;4;0;3147;0;0;0;0;5;0;0;0;0;0;0;0;0;6;0;5873;2;0;0;0;0;0;7;0;4052;0;0;0;0;8;0;1833;0;0;0;0;9;0;2152;0;0;0;0
04.11.20;17:35:00;1;601;7560;0;2;0;3642;0;0;0;0;3;0;2261;0;0;0;0;4;0;3147;0;0;0;0;5;0;0;0;0;0;0;0;0;6;0;5873;2;0;0;0;0;0;7;0;4052;0;0;0;0;8;0;1833;0;0;0;0;9;0;2152;0;0;0;0
04.11.20;17:30:00;1;836;7504;0;2;0;3642;0;0;0;0;3;0;2261;0;0;0;0;4;0;3147;0;0;0;0;5;0;0;0;0;0;0;0;0;6;0;5873;2;0;0;0;0;0;7;0;4052;0;0;0;0;8;0;1833;0;0;0;0;9;0;2152;0;0;0;0
04.11.20;17:25:00;1;1256;7432;0;2;0;3642;0;0;0;0;3;0;2261;0;0;0;0;4;0;3147;0;0;0;0;5;0;0;0;0;0;0;0;0;6;0;5873;2;0;0;0;0;0;7;0;4052;0;0;0;0;8;0;1833;0;0;0;0;9;0;2152;0;0;0;0
04.11.20;17:20:00;1;1166;7326;0;2;0;3642;0;0;0;0;3;0;2261;0;0;0;0;4;0;3147;0;0;0;0;5;0;0;0;0;0;0;0;0;6;0;5873;2;0;0;0;0;0;7;0;4052;0;0;0;0;8;0;1833;0;0;0;0;9;0;2152;0;0;0;0
04.11.20;17:15:00;1;469;7245;0;2;0;3642;0;0;0;0;3;0;2261;0;0;0;0;4;0;3147;0;0;0;0;5;0;0;0;0;0;0;0;0;6;0;5873;2;0;0;0;0;0;7;0;4052;0;0;0;0;8;0;1833;0;0;0;0;9;0;2152;0;0;0;0
04.11.20;17:10:00;1;416;7206;0;2;0;3642;0;0;0;0;3;0;2261;0;0;0;0;4;0;3147;0;0;0;0;5;0;0;0;0;0;0;0;0;6;0;5873;2;0;0;0;0;0;7;0;4052;0;0;0;0;8;0;1833;0;0;0;0;9;0;2152;0;0;0;0
04.11.20;17:05:00;1;491;7169;0;2;0;3642;0;0;0;0;3;0;2261;0;0;0;0;4;0;3147;0;0;0;0;5;0;0;0;0;0;0;0;0;6;0;5873;2;0;0;0;0;0;7;0;4052;0;0;0;0;8;0;1833;0;0;0;0;9;0;2152;0;0;0;0
04.11.20;17:00:00;1;826;7123;0;2;0;3642;0;0;0;0;3;0;2261;0;0;0;0;4;0;3147;0;0;0;0;5;0;0;0;0;0;0;0;0;6;0;5873;2;0;0;0;0;0;7;0;4052;0;0;0;0;8;0;1833;0;0;0;0;9;0;2152;0;0;0;0
04.11.20;16:55:00;1;846;7053;0;2;0;3642;0;0;225;13;3;0;2261;6;0;294;19;4;0;3147;0;0;50;12;5;0;0;0;0;0;0;0;0;6;0;5873;2;0;0;0;0;0;7;0;4052;0;0;0;0;8;0;1833;0;0;0;0;9;0;2152;0;0;0;0
04.11.20;16:50:00;1;716;6978;0;2;0;3642;6;0;286;16;3;0;2261;6;0;321;19;4;0;3147;1;0;87;17;5;0;0;0;0;0;0;0;0;6;0;5873;0;0;0;0;0;1;7;0;4052;0;0;0;0;8;0;1833;0;0;0;0;9;0;2152;0;0;0;0
04.11.20;16:45:00;1;892;6919;0;2;0;3642;6;0;304;16;3;0;2261;6;0;360;19;4;0;3147;1;0;105;17;5;0;0;0;0;0;0;0;0;6;0;5873;2;0;0;0;0;1;7;0;4052;0;0;0;0;8;0;1833;0;0;0;0;9;0;2152;0;0;0;0
04.11.20;16:40:00;1;668;6855;0;2;0;3642;6;0;315;16;3;0;2261;6;0;384;19;4;0;3147;1;0;118;18;5;0;0;0;0;0;0;0;0;6;0;5873;1;5;0;89;157;13;7;0;4052;0;0;0;0;8;0;1833;0;0;0;0;9;0;2152;0;0;216;13
04.11.20;16:35:00;1;641;6799;0;2;0;3642;6;0;329;16;3;0;2261;6;0;406;19;4;0;3147;1;0;133;18;5;0;0;0;0;0;0;0;0;6;0;5873;23;10;0;180;435;27;7;0;4052;6;0;260;21;8;0;1833;6;0;259;20;9;0;2152;6;0;289;16
04.11.20;16:30:00;1;689;6746;0;2;0;3642;6;0;341;17;3;0;2261;6;1;407;19;4;0;3147;1;0;149;18;5;0;0;0;0;0;0;0;0;6;0;5873;23;8;0;181;486;28;7;0;4052;6;0;291;21;8;0;1833;6;0;292;20;9;0;2152;6;0;312;16
04.11.20;16:25:00;1;699;6688;0;2;0;3642;6;0;361;17;3;0;2261;6;1;442;20;4;0;3147;1;0;180;18;5;0;0;0;0;0;0;0;0;6;0;5873;23;9;0;203;527;28;7;0;4052;6;0;344;21;8;0;1833;6;0;346;20;9;0;2152;6;0;370;17
04.11.20;16:20:00;1;740;6629;0;2;0;3642;6;0;381;17;3;1;2261;4;2;463;20;4;0;3147;1;0;209;19;5;0;0;0;0;0;0;0;0;6;0;5873;23;10;0;247;552;29;7;0;4052;6;0;386;22;8;0;1833;6;0;405;20;9;0;2152;6;1;412;17
04.11.20;16:15:00;1;727;6567;0;2;0;3642;6;0;397;17;3;0;2261;3;9;461;20;4;0;3147;3;0;219;19;5;0;0;0;0;0;0;0;0;6;34;5873;1;24;13;497;472;30;7;0;4052;6;1;429;22;8;0;1833;6;0;432;20;9;0;2152;6;1;471;17
04.11.20;16:10:00;1;680;6512;0;2;0;3642;6;0;412;18;3;1;2261;6;6;504;20;4;4;3147;3;4;200;19;5;0;0;0;0;0;0;0;0;6;78;5870;4;47;32;456;425;30;7;1;4052;6;4;457;22;8;0;1833;6;1;458;21;9;1;2152;6;2;505;17
04.11.20;16:05:00;1;815;6454;0;2;62;3642;4;90;355;18;3;10;2260;6;21;499;20;4;33;3147;3;35;198;20;5;0;0;0;0;0;0;0;0;6;131;5863;4;89;72;456;424;30;7;35;4052;6;63;404;22;8;3;1833;4;7;456;21;9;6;2152;3;13;510;17
04.11.20;16:00:00;1;971;6384;0;2;91;3637;4;120;356;18;3;33;2260;6;54;459;21;4;61;3144;3;63;198;20;5;0;0;0;0;0;0;0;0;6;173;5852;4;103;80;456;425;30;7;71;4049;4;106;422;22;8;4;1833;3;13;470;21;9;7;2151;6;11;544;17
04.11.20;15:55:00;1;961;6303;0;2;124;3629;4;155;371;18;3;71;2257;4;106;453;21;4;86;3139;3;90;206;20;5;0;0;0;0;0;0;0;0;6;206;5837;4;113;89;456;425;30;7;105;4043;4;144;415;22;8;16;1832;6;26;452;21;9;27;2150;6;37;513;17
04.11.20;15:50:00;1;814;6223;0;2;140;3619;4;171;373;18;3;78;2251;4;116;488;21;4;104;3132;5;108;213;20;5;0;0;0;0;0;0;0;0;6;206;5820;4;119;95;456;425;30;7;114;4035;4;156;443;22;8;27;1831;4;47;417;21;9;55;2148;4;75;445;17
04.11.20;15:45:00;1;301;6155;0;2;125;3607;4;155;369;19;3;69;2244;4;107;483;21;4;83;3123;3;86;199;20;5;0;0;0;0;0;0;0;0;6;185;5803;4;102;80;456;425;30;7;104;4025;4;137;409;22;8;4;1829;6;8;501;21;9;15;2144;6;22;532;18
04.11.20;15:40:00;1;319;6130;0;2;115;3597;4;145;369;19;3;64;2239;4;102;452;21;4;68;3116;3;70;199;20;5;0;0;0;0;0;0;0;0;6;177;5787;4;112;89;456;425;30;7;91;4016;4;119;369;22;8;4;1829;6;8;497;21;9;8;2142;6;11;547;18
04.11.20;15:35:00;1;314;6104;0;2;121;3587;4;151;370;19;3;68;2233;4;104;456;21;4;77;3110;3;81;199;20;5;0;0;0;0;0;0;0;0;6;188;5773;4;97;78;456;425;30;7;103;4009;4;133;393;22;8;10;1828;4;18;469;22;9;8;2142;6;12;550;18
04.11.20;15:30:00;1;270;6078;0;2;148;3577;4;177;361;19;3;84;2228;4;121;477;21;4;106;3104;5;111;218;20;5;0;0;0;0;0;0;0;0;6;224;5757;4;103;86;456;425;30;7;131;4000;4;165;448;23;8;45;1827;4;72;357;22;9;58;2141;6;81;477;18
04.11.20;15:25:00;1;297;6056;0;2;147;3565;4;178;363;19;3;84;2221;4;119;486;21;4;104;3095;5;108;216;20;5;0;0;0;0;0;0;0;0;6;220;5738;4;112;91;456;425;30;7;132;3989;4;159;451;22;8;45;1823;4;73;363;22;9;60;2136;4;79;444;18
04.11.20;15:20:00;1;257;6030;0;2;142;3553;4;173;370;19;3;83;2214;4;116;465;21;4;94;3086;3;98;205;20;5;0;0;0;0;0;0;0;0;6;204;5719;4;108;87;456;425;30;7;110;3978;4;147;422;22;8;12;1820;6;22;469;22;9;30;2131;6;42;508;18
04.11.20;15:15:00;1;257;6008;0;2;182;3541;4;213;370;19;3;105;2207;4;144;491;21;4;130;3078;5;135;222;20;5;0;0;0;0;0;0;0;0;6;248;5702;4;154;129;456;425;30;7;149;3969;4;184;403;22;8;49;1818;4;91;446;22;9;81;2129;4;107;461;19
04.11.20;15:10:00;1;290;5987;0;2;192;3526;4;223;365;19;3;111;2198;4;149;496;22;4;142;3068;5;148;220;20;5;0;0;0;0;0;0;0;0;6;261;5681;4;133;112;456;425;30;7;167;3957;4;206;427;23;8;62;1814;4;96;434;22;9;93;2122;4;118;479;19
04.11.20;15:05:00;1;296;5963;0;2;207;3509;4;239;371;19;3;122;2188;4;160;502;22;4;163;3056;5;170;222;20;5;0;0;0;0;0;0;0;0;6;290;5659;4;159;133;456;425;30;7;208;3943;4;242;447;23;8;73;1809;4;105;479;22;9;113;2114;4;140;493;19
04.11.20;15:00:00;1;321;5938;0;2;162;3492;4;194;358;19;3;96;2178;4;134;481;22;4;121;3042;5;125;220;20;5;0;0;0;0;0;0;0;0;6;249;5635;4;150;127;456;425;30;7;158;3925;4;195;415;23;8;50;1803;4;93;451;22;9;87;2104;4;112;453;19
04.11.20;14:55:00;1;387;5910;0;2;168;3479;4;200;366;19;3;99;2170;4;134;466;22;4;127;3032;5;132;220;20;5;0;0;0;0;0;0;0;0;6;256;5615;4;128;111;456;425;30;7;171;3912;4;200;435;23;8;54;1799;4;95;464;22;9;88;2097;4;114;462;19
04.11.20;14:50:00;1;315;5876;0;2;185;3465;4;220;365;19;3;104;2162;4;146;508;22;4;147;3021;5;153;223;20;5;0;0;0;0;0;0;0;0;6;275;5593;4;126;106;456;425;30;7;180;3898;4;216;468;23;8;59;1794;4;96;478;22;9;103;2090;4;131;477;19
04.11.20;14:45:00;1;324;5850;0;2;190;3449;4;221;377;19;3;107;2153;4;147;506;22;4;145;3009;5;151;223;20;5;0;0;0;0;0;0;0;0;6;277;5570;4;153;129;456;425;30;7;183;3883;4;214;460;23;8;53;1789;4;93;482;22;9;100;2081;4;126;471;19
04.11.20;14:40:00;1;305;5822;0;2;186;3433;4;218;367;20;3;107;2144;4;148;501;22;4;144;2997;5;150;219;21;5;0;0;0;0;0;0;0;0;6;269;5547;4;148;128;456;425;30;7;176;3868;4;215;430;23;8;61;1785;4;99;476;22;9;98;2073;4;124;483;20
04.11.20;14:35:00;1;280;5797;0;2;176;3418;4;207;361;20;3;102;2135;4;141;486;22;4;135;2985;5;140;221;21;5;0;0;0;0;0;0;0;0;6;263;5525;4;152;131;458;425;30;7;170;3853;4;200;393;23;8;54;1779;4;91;467;22;9;92;2065;4;120;467;20
04.11.20;14:30:00;1;337;5772;0;2;180;3403;4;209;371;20;3;105;2127;4;144;490;22;4;137;2974;5;142;216;21;5;0;0;0;0;0;0;0;0;6;290;5503;4;157;118;552;433;30;7;174;3839;4;207;406;23;8;69;1775;4;97;423;22;9;94;2057;4;122;485;20
04.11.20;14:25:00;1;292;5744;0;2;215;3388;4;249;378;20;3;128;2118;4;168;468;22;4;172;2962;5;180;221;21;5;0;0;0;0;0;0;0;0;6;386;5477;4;209;193;572;539;30;7;220;3825;4;255;436;23;8;82;1769;4;117;418;22;9;117;2049;4;145;503;20
04.11.20;14:20:00;1;279;5721;0;2;273;3370;4;310;380;20;3;165;2108;4;203;458;22;4;229;2948;5;239;227;21;5;0;0;0;0;0;0;0;0;6;477;5445;4;233;212;563;545;30;7;301;3807;4;330;446;23;8;117;1762;4;155;430;22;9;155;2040;4;185;503;20
04.11.20;14:15:00;1;298;5697;0;2;328;3348;4;368;389;21;3;204;2094;4;245;484;22;4;283;2929;5;294;229;21;5;0;0;0;0;0;0;0;0;6;571;5404;4;309;284;569;543;30;7;354;3781;4;393;448;23;8;161;1752;4;192;439;22;9;194;2027;4;226;490;20
04.11.20;14:10:00;1;325;5672;0;2;356;3320;4;394;388;21;3;220;2077;4;263;485;23;4;306;2905;5;319;231;21;5;0;0;0;0;0;0;0;0;6;610;5357;4;298;276;571;548;30;7;405;3752;4;445;455;23;8;174;1739;4;217;464;22;9;218;2010;4;251;499;20
04.11.20;14:05:00;1;348;5645;0;2;401;3291;4;444;393;21;3;248;2058;4;294;500;23;4;345;2880;5;359;232;21;5;0;0;0;0;0;0;0;0;6;666;5305;4;352;323;569;556;30;7;436;3718;4;475;468;23;8;198;1725;4;233;458;22;9;236;1992;4;272;502;21
04.11.20;14:00:00;1;340;5616;0;2;459;3257;4;501;391;21;3;287;2038;4;332;496;23;4;394;2851;5;411;231;21;5;0;0;0;0;0;0;0;0;6;736;5249;4;403;377;585;557;30;7;497;3682;4;544;458;23;8;227;1708;4;265;456;22;9;255;1972;4;306;516;21
04.11.20;13:55:00;1;298;5586;0;2;503;3219;4;546;389;21;3;310;2014;4;357;477;23;4;435;2818;5;454;235;21;5;0;0;0;0;0;0;0;0;6;816;5187;4;442;413;576;557;30;7;551;3640;4;588;469;23;8;249;1689;4;286;459;22;9;295;1951;4;330;516;21
04.11.20;13:50:00;1;292;5561;0;2;573;3177;4;619;391;21;3;359;1988;4;407;497;23;4;496;2782;5;517;233;21;5;0;0;0;0;0;0;0;0;6;915;5119;4;476;449;578;557;30;7;631;3595;4;662;471;23;8;286;1668;4;328;460;22;9;332;1926;4;370;501;21
04.11.20;13:45:00;1;305;5537;0;2;646;3129;4;695;403;21;3;409;1958;4;455;494;23;4;566;2740;5;589;237;21;5;0;0;0;0;0;0;0;0;6;1025;5041;4;524;491;586;556;30;7;693;3542;4;738;474;23;8;320;1644;4;364;481;22;9;373;1898;4;417;515;21
04.11.20;13:40:00;1;319;5512;0;2;581;3075;4;625;393;21;3;367;1924;4;416;495;23;4;506;2693;5;527;236;21;5;0;0;0;0;0;0;0;0;6;942;4956;4;499;465;583;560;30;7;597;3484;4;639;469;23;8;273;1618;4;315;475;22;9;322;1867;4;363;523;21
04.11.20;13:35:00;1;364;5486;0;2;493;3027;4;535;395;21;3;310;1893;4;355;496;23;4;425;2651;5;442;234;21;5;0;0;0;0;0;0;0;0;6;792;4878;4;412;384;576;554;30;7;492;3434;4;533;464;23;8;222;1595;4;259;468;22;9;267;1841;4;303;513;21
04.11.20;13:30:00;1;277;5455;0;2;446;2986;4;488;394;21;3;279;1867;4;324;500;23;4;382;2615;5;398;231;21;5;0;0;0;0;0;0;0;0;6;707;4813;4;374;354;572;556;30;7;456;3393;4;502;461;23;8;207;1576;4;247;443;22;9;247;1818;4;283;515;21